"Pseudo-MPEC" for P22papg

Created 2026 Aug 13 20:35:29 UT using Find_Orb

Click here for an explanation of pseudo-MPECs

 
 Astrometry: 
     P22papg*0C2026 08 11.32939717 32 36.040+03 17 05.94   ~8B9Z 20.19wXNEOCPF52
     P22papg 0C2026 08 11.34718617 32 17.608+03 18 21.74   ~8B9Z 20.27wXNEOCPF52
     P22papg 0C2026 08 11.35605717 32 08.413+03 18 59.46   ~8B9Z 20.09wXNEOCPF52
     P22papg 0C2026 08 11.40268317 31 20.110+03 22 18.11   ~8BKZ 19.99GVNEOCPF51
     P22papg 0C2026 08 11.40333117 31 19.438+03 22 20.89   ~8BKZ 19.83GVNEOCPF51
     P22papg KB2026 08 11.87402817 23 14.14 +03 55 54.6    ~8BLZ 20.1 GXNEOCPI93
     P22papg KB2026 08 11.87811717 23 09.82 +03 56 12.5    ~8BLZ 19.8 GXNEOCPI93
     P22papg KB2026 08 11.88213717 23 05.53 +03 56 30.0    ~8BLZ 19.4 GXNEOCPI93
     P22papg KB2026 08 11.88694617 22 59.77 +03 56 50.0    ~8BLo 19.8 GVNEOCPL01
     P22papg KB2026 08 11.88957117 22 56.94 +03 57 01.4    ~8BLo 19.4 GVNEOCPL01
     P22papg KB2026 08 11.89209217 22 54.32 +03 57 12.7    ~8BLo 19.7 GVNEOCPL01
     P22papg 0B2026 08 11.90875817 22 36.230+03 58 31.22   ~8CCo 19.85GXNEOCPL34
     P22papg 0B2026 08 11.93721917 22 05.885+04 00 35.68   ~8CCo 20.37GXNEOCPL34
     P22papg KC2026 08 12.15982917 18 10.10 +04 16 52.8    ~8C4Z 20.6 GVNEOCPH21
     P22papg KC2026 08 12.16838717 18 00.82 +04 17 31.0    ~8C4Z       VNEOCPH21
     P22papg KC2026 08 12.17124117 17 57.72 +04 17 43.1    ~8C4Z 20.9 GVNEOCPH21
     P22papg 1C2026 08 12.84818017 05 38.886+05 07 55.80   ~8CKo 20.2 GXNEOCP033
     P22papg 1C2026 08 12.84872017 05 38.278+05 07 58.50   ~8CKo 20.1 GXNEOCP033
     P22papg 1C2026 08 12.84926017 05 37.666+05 08 00.80   ~8CKo 20.1 GXNEOCP033
     P22papg 1C2026 08 12.84980017 05 37.046+05 08 03.20   ~8CKo 20.0 GXNEOCP033
     P22papg 0B2026 08 12.90503517 04 35.131+05 12 14.94   ~8CNK 19.5 GXNEOCPR54
     P22papg 0B2026 08 12.91685217 04 21.727+05 13 08.33   ~8CNK 19.6 GXNEOCPR54
     P22papg 0B2026 08 12.92868117 04 08.340+05 14 01.14   ~8CNK 20.1 GXNEOCPR54
     P22papg 1C2026 08 13.83932016 46 46.556+06 22 56.60   ~8DKZ 19.7 GXNEOCP033
     P22papg 1C2026 08 13.83992016 46 45.847+06 22 59.40   ~8DKZ 20.0 GXNEOCP033
     P22papg 1C2026 08 13.84052016 46 45.134+06 23 02.20   ~8DKZ 20.0 GXNEOCP033
     P22papg 1C2026 08 13.84112016 46 44.425+06 23 05.10   ~8DKZ 20.1 GXNEOCP033

Station data:
(033) Karl Schwarzschild Observatory, Tautenburg  (N50.980139 E11.711240)
   Germany.  Observer B. Stecklum. 1.34-m f/3 Schmidt + CCD.
(F51) Pan-STARRS 1, Haleakala  (N20.707234 W156.255910)  US/Hawaii.
   Observers J. Herman, T. Lowe, P. Minguez, A. Schultz, I. Smith. Measurers
   K. Chambers, T. de Boer, J. Fairlamb, H. Gao, M. Huber, C.-C. Lin, E.
   Magnier, Y. Ramanjooloo, R. Wainscoat, R. Weryk. 1.8-m Ritchey-Chrétien +
   CCD.
(F52) Pan-STARRS 2, Haleakala  (N20.707382 W156.255910)  US/Hawaii.
   Observers J. Herman, T. Lowe, P. Minguez, A. Schultz, I. Smith. Measurers
   K. Chambers, T. de Boer, J. Fairlamb, H. Gao, M. Huber, C.-C. Lin, E.
   Magnier, Y. Ramanjooloo, R. Wainscoat, R. Weryk. 1.8-m Ritchey-Chrétien +
   CCD.
(H21) Astronomical Research Observatory, Westfield  (N39.483054 W87.968270)
   US/Illinois.  Observer R. Holmes. Measurers S. Foglia, L. Buzzi, T.
   Linder, R. Holmes. 0.40-m f/5.32 astrograph + CCD.
(I93) St Pardon de Conques  (N44.558670 W0.202960)  France.  Observers F.
   Losse, W. D'Anna. Measurer F. Losse. 0.40-m f/3.7 reflector + CCD.
(L01) Višnjan Observatory, Tičan  (N45.290897 E13.749300)  Croatia.
   Observers K. Korlević, L. Poropat. Measurer K. Korlevic. 1.0-m f/2.9
   reflector + CCD.
(L34) Galhassin Robotic Telescope, Isnello  (N37.939358 E14.020610)  Italy.
   Observer A. Nastasi. 0.40-m reflector + CCD.
(R54) Petit Cosquet, Bangor  (N47.314413 W3.211500)  France.

Orbital elements:  P22papg
   Perihelion 2026 Oct 1.898222 +/- 0.189 TT = 21:33:26.3 (JD 2461315.398222)
Epoch 2026 Aug 13.0 TT = JDT 2461265.5   Earth MOID: 0.0664   Ve: 0.0864
M 345.029330270 +/- 0.47            (J2000 ecliptic)             AutoNEOCP
n   0.300024112 +/- 0.00836         Peri.  157.813004 +/- 0.21
a   2.209862619 +/- 0.0411          Node   263.340877 +/- 0.25
e   0.79327112 +/- 0.00504          Incl.    4.658873 +/- 0.053
P   3.28509                H 22.12  G  0.15   U  9.5
q 0.456842406 +/- 0.00265    Q 3.962882832 +/- 0.0848
From 27 observations 2026 Aug. 11-13; mean residual 0".27
Residuals in arcseconds: 
260811 F52  .02-  .10-    260811 L01  .07-  .13-    260812 033  .23-  .05-    
260811 F52  .04-  .00     260811 L01  .99+  .18+    260812 033  .38-  .08-    
260811 F52  .07-  .03-    260811 L34  .15-  .11+    260812 R54  .23-  .01+    
260811 F51  .09-  .05+    260811 L34  .80+  .48+    260812 R54  .45-  .22+    
260811 F51  .10-  .06+    260812 H21  .39-  .34-    260812 R54  .21-  .19-    
260811 I93  .26-  .02+    260812 H21  .02-  .17+    260813 033  .17+  .12-    
260811 I93  .49+  .08+    260812 H21  .02+  .30-    260813 033  .19+  .05-    
260811 I93  .59+  .04+    260812 033  .22-  .20-    260813 033  .16+  .02+    
260811 L01  .36+  .09-    260812 033  .19-  .08+    260813 033  .19+  .19+    

Ephemerides (geocentric):
Date (UTC) HH   RA             Dec           delta  r     elong  mag " sig PA
---- --------  ------------   ------------  ------ ------ -----  --- --------
2026 08 13 21  16 46 05.885   +06 26 23.59  .14032 1.0603 106.0 20.3 .436  20
2026 08 13 22  16 45 17.049   +06 29 33.65  .14020 1.0597 105.7 20.3 .440  20
2026 08 13 23  16 44 28.127   +06 32 43.72  .14008 1.0591 105.5 20.3 .444  20
2026 08 14 00  16 43 39.120   +06 35 53.77  .13997 1.0585 105.2 20.3 .447  20
2026 08 14 01  16 42 50.029   +06 39 03.81  .13986 1.0579 105.0 20.4 .451  20
2026 08 14 02  16 42 00.854   +06 42 13.82  .13975 1.0573 104.7 20.4 .455  20
2026 08 14 03  16 41 11.597   +06 45 23.80  .13964 1.0567 104.5 20.4 .459  20
2026 08 14 04  16 40 22.259   +06 48 33.74  .13953 1.0561 104.2 20.4 .463  20
2026 08 14 05  16 39 32.840   +06 51 43.63  .13942 1.0555 104.0 20.4 .467  20
2026 08 14 06  16 38 43.342   +06 54 53.46  .13932 1.0549 103.8 20.4 .471  20
2026 08 14 07  16 37 53.765   +06 58 03.23  .13922 1.0543 103.5 20.4 .474  20
2026 08 14 08  16 37 04.111   +07 01 12.93  .13912 1.0537 103.3 20.4 .478  20
2026 08 14 09  16 36 14.381   +07 04 22.54  .13902 1.0531 103.0 20.4 .482  20
2026 08 14 10  16 35 24.575   +07 07 32.07  .13892 1.0525 102.8 20.4 .486  20
2026 08 14 11  16 34 34.694   +07 10 41.50  .13883 1.0518 102.5 20.4 .490  20
2026 08 14 12  16 33 44.740   +07 13 50.83  .13874 1.0512 102.3 20.4 .494  20
2026 08 14 13  16 32 54.714   +07 17 00.04  .13865 1.0506 102.0 20.4 .498  20
2026 08 14 14  16 32 04.617   +07 20 09.13  .13856 1.0500 101.8 20.4 .502  20
2026 08 14 15  16 31 14.449   +07 23 18.09  .13847 1.0494 101.5 20.4 .506  20
2026 08 14 16  16 30 24.213   +07 26 26.92  .13839 1.0488 101.3 20.4 .510  20
2026 08 14 17  16 29 33.908   +07 29 35.59  .13830 1.0482 101.0 20.4 .514  20
2026 08 14 18  16 28 43.536   +07 32 44.12  .13822 1.0476 100.8 20.4 .518  20
2026 08 14 19  16 27 53.099   +07 35 52.48  .13814 1.0470 100.5 20.4 .522  20
2026 08 14 20  16 27 02.597   +07 39 00.67  .13807 1.0464 100.3 20.4 .526  20
2026 08 14 21  16 26 12.031   +07 42 08.69  .13799 1.0458 100.0 20.5 .530  20
2026 08 14 22  16 25 21.403   +07 45 16.52  .13792 1.0452  99.8 20.5 .534  20
2026 08 14 23  16 24 30.713   +07 48 24.15  .13784 1.0446  99.5 20.5 .538  20
2026 08 15 00  16 23 39.964   +07 51 31.58  .13778 1.0440  99.3 20.5 .542  20
2026 08 15 01  16 22 49.155   +07 54 38.79  .13771 1.0434  99.0 20.5 .546  19
2026 08 15 02  16 21 58.288   +07 57 45.79  .13764 1.0428  98.8 20.5 .550  19
2026 08 15 03  16 21 07.365   +08 00 52.56  .13758 1.0422  98.5 20.5 .554  19
2026 08 15 04  16 20 16.386   +08 03 59.09  .13752 1.0416  98.3 20.5 .558  19
2026 08 15 05  16 19 25.353   +08 07 05.38  .13745 1.0410  98.0 20.5 .562  19
2026 08 15 06  16 18 34.267   +08 10 11.42  .13740 1.0404  97.8 20.5 .566  19
2026 08 15 07  16 17 43.129   +08 13 17.19  .13734 1.0398  97.5 20.5 .570  19
2026 08 15 08  16 16 51.940   +08 16 22.70  .13729 1.0392  97.3 20.5 .574  19
2026 08 15 09  16 16 00.702   +08 19 27.93  .13723 1.0386  97.0 20.5 .578  19
2026 08 15 10  16 15 09.415   +08 22 32.87  .13718 1.0379  96.8 20.5 .582  19
2026 08 15 11  16 14 18.082   +08 25 37.52  .13713 1.0373  96.5 20.5 .586  19
2026 08 15 12  16 13 26.703   +08 28 41.87  .13709 1.0367  96.3 20.5 .590  19
2026 08 15 13  16 12 35.279   +08 31 45.90  .13704 1.0361  96.0 20.5 .594  19
2026 08 15 14  16 11 43.812   +08 34 49.62  .13700 1.0355  95.8 20.6 .599  19
2026 08 15 15  16 10 52.303   +08 37 53.01  .13696 1.0349  95.5 20.6 .603  18
2026 08 15 16  16 10 00.753   +08 40 56.07  .13692 1.0343  95.2 20.6 .607  18
2026 08 15 17  16 09 09.164   +08 43 58.79  .13688 1.0337  95.0 20.6 .611  18
2026 08 15 18  16 08 17.537   +08 47 01.15  .13685 1.0331  94.7 20.6 .615  18
2026 08 15 19  16 07 25.873   +08 50 03.16  .13681 1.0325  94.5 20.6 .619  18
2026 08 15 20  16 06 34.173   +08 53 04.80  .13678 1.0319  94.2 20.6 .623  18